GSAT0212 (PRN E03)

Last updated on June 27, 2019, 3:44 a.m. UTC

1 41860U 16069B   19175.89222660  .00000079  00000-0  00000-0 0  9995
2 41860  54.6047 171.8040 0005277 302.6519  57.3022  1.70473488 16193
UTC
Height (km)
Latitude
Longitude
Inclination
Orbital Period
UTC large
Height (km)
Speed (km/s)
/
Latitude / Longitude
Inclination (degrees)
Orbital Period (minutes)
Azimuth
Elevation
Range (km)
Doppler Factor
iOS Compass Heading
iOS Angle

Next 30 passes for location: Hong Kong

Rise time Rise Azimuth (degrees) Set time Set Azimuth (degrees) Duration Max altitude (degrees)

No matching passes for this satellites